SIRIUS 1

导读

SIRIUS 1(天狼星1号)是美国天狼星卫星广播公司运营的第一代“天狼星”广播卫星,于2000年6月30日发射升空,是该系列首颗入轨卫星。卫星基于劳拉公司LS-1300平台研制,起飞质量约3800千克,运行在周期24小时的大椭圆倾斜轨道,主要为美国本土提供连续卫星音频广播与语音通信服务,构成天狼星卫星广播系统的空间段核心。

基本信息
目录编号:
26390
目录名称:
SIRIUS 1
国际标识:
2000-035A
轨道中心:
EARTH
卫星名称:
SIRIUS 1
卫星全名:
--
卫星状态:
在轨 (已飞行9478 天)
发射日期:
2000-06-30 UTC
国别 :
美国 (US)
星等 :
--
轨道信息
数据来源 国际轨道数据
星历时间: 2026-06-10T11:11:44+0800
2天前
查看轨道信息
半长轴: 31154.604km
偏心率: 0.000401
轨道倾角: 59.385°
近地点辐角 304.155°
升交点赤经 160.057°
平近点角 234.009°
近地点: 24763.974km
远地点: 24788.96km
周期: 912.101分钟
每日圈数: 1.578772
详细信息
使用方式:
暂无
2D轨道图
3D轨道图
轨道高度分析图
轨道倾角分析图
轨道综合分析图
查看轨道综合分析图